Change the Weather History Date:

Saturday, August 23, 2014

  Actual Average Record
Temperature  
Mean Temperature 63 °F 66 °F  
Max Temperature 67 °F 76 °F 90 °F (1936)
Min Temperature 58 °F 56 °F 34 °F (1923)
Degree Days  
Heating Degree Days 2 1  
Month to date heating degree days 36 23  
Since 1 June heating degree days 115 145  
Since 1 July heating degree days 60 45  
Cooling Degree Days 0 2  
Month to date cooling degree days 27 82  
Year to date cooling degree days 202 284  
Since 1 June cooling degree days 195 265  
Growing Degree Days 12 (Base 50)    
Moisture  
Dew Point 58 °F    
Average Humidity 91    
Maximum Humidity 97    
Minimum Humidity 84    
Precipitation  
Precipitation 0.25 in 0.15 in 1.68 in (1970)
Month to date precipitation 2.47 3.54  
Year to date precipitation 28.37 30.06  
Sea Level Pressure  
Sea Level Pressure 30.12 in    
Wind  
Wind Speed 6 mph (East)    
Max Wind Speed 14 mph    
Max Gust Speed 20 mph    
Visibility 4 miles    
Events Fog , Rain    
T = Trace of Precipitation, MM = Missing Value Source: NWS Daily Summary

Daily Weather History Graph

Daily Weather History Graph

Search for Another Location

Airport or City:

Trip Planner

Search our weather history database for the weather conditions in past years. The results will help you decide how hot, cold, wet, or windy it might be!

Date:

Astronomy

Aug. 23, 2014 Rise Set
Actual Time 6:19 AM EDT 7:48 PM EDT
Civil Twilight 5:50 AM EDT 8:17 PM EDT
Nautical Twilight 5:15 AM EDT 8:52 PM EDT
Astronomical Twilight 4:38 AM EDT 9:28 PM EDT
Moon 4:32 AM EDT (8/23) 6:31 PM EDT (8/23)
Length of Visible Light 14h 27m
Length of Day
13h 29m
Waning Crescent, 3% of the Moon is Illuminated
Aug 23
Waning Crescent
Aug 25
New
Sep 2
First Quarter
Sep 8
Full
Sep 15
Last Quarter

Hourly Weather History & Observations

Time (EDT) Temp. Dew Point Humidity Pressure Visibility Wind Dir Wind Speed Gust Speed Precip Events Conditions
12:53 AM 61.0 °F 59.0 °F 93% 30.08 in 8.0 mi ESE 4.6 mph - N/A   Overcast
1:53 AM 61.0 °F 57.9 °F 90% 30.07 in 2.5 mi East 5.8 mph - N/A   Overcast
2:16 AM 60.1 °F 57.9 °F 93% 30.08 in 10.0 mi East 6.9 mph - N/A   Overcast
2:29 AM 60.1 °F 57.9 °F 93% 30.08 in 2.0 mi East 5.8 mph - N/A   Overcast
2:38 AM 60.1 °F 57.9 °F 93% 30.08 in 10.0 mi East 6.9 mph - N/A   Overcast
2:53 AM 60.1 °F 57.9 °F 93% 30.06 in 10.0 mi East 8.1 mph - N/A   Overcast
3:07 AM 60.1 °F 57.9 °F 93% 30.07 in 3.0 mi East 6.9 mph - N/A   Overcast
3:13 AM 60.1 °F 57.9 °F 93% 30.07 in 1.2 mi East 8.1 mph - N/A   Overcast
3:20 AM 60.1 °F 57.9 °F 93% 30.07 in 0.8 mi East 9.2 mph - N/A   Overcast
3:23 AM 60.1 °F 57.9 °F 93% 30.07 in 1.5 mi East 8.1 mph - N/A   Overcast
3:32 AM 60.1 °F 57.9 °F 93% 30.07 in 1.8 mi ESE 9.2 mph - N/A   Overcast
3:49 AM 60.8 °F 57.2 °F 88% 30.07 in 4.0 mi ESE 8.1 mph - N/A   Overcast
3:53 AM 60.1 °F 57.9 °F 93% 30.06 in 7.0 mi ESE 8.1 mph - N/A   Overcast
3:56 AM 60.1 °F 57.9 °F 93% 30.07 in 2.5 mi East 8.1 mph - N/A   Overcast
4:03 AM 60.1 °F 57.9 °F 93% 30.08 in 1.8 mi ESE 8.1 mph - N/A   Overcast
4:06 AM 60.1 °F 57.9 °F 93% 30.08 in 3.0 mi ESE 9.2 mph - N/A   Overcast
4:16 AM 60.1 °F 57.9 °F 93% 30.07 in 10.0 mi ESE 8.1 mph - N/A   Overcast
4:36 AM 60.1 °F 57.9 °F 93% 30.08 in 9.0 mi ESE 6.9 mph - N/A   Overcast
5:42 AM 60.1 °F 57.9 °F 93% 30.09 in 1.8 mi ESE 9.2 mph - N/A   Overcast
5:50 AM 60.8 °F 57.2 °F 88% 30.09 in 3.0 mi ESE 8.1 mph - 0.01 in Rain Light Rain
5:53 AM 60.1 °F 57.9 °F 93% 30.07 in 1.8 mi ESE 10.4 mph - 0.01 in Rain Rain
6:02 AM 60.1 °F 57.9 °F 93% 30.09 in 4.0 mi ESE 9.2 mph - 0.02 in Rain Light Rain
6:15 AM 60.1 °F 57.0 °F 90% 30.09 in 6.0 mi ESE 10.4 mph 19.6 mph 0.02 in Rain Light Rain
6:28 AM 59.0 °F 55.9 °F 90% 30.09 in 6.0 mi ESE 11.5 mph - 0.02 in Rain Light Rain
6:44 AM 59.0 °F 55.9 °F 90% 30.10 in 5.0 mi SE 10.4 mph - 0.04 in Rain Light Rain
7:16 AM 59.0 °F 55.9 °F 90% 30.11 in 10.0 mi SE 10.4 mph - 0.01 in Rain Light Rain
7:33 AM 59.0 °F 57.0 °F 93% 30.11 in 8.0 mi SE 8.1 mph - 0.01 in   Overcast
7:46 AM 60.1 °F 57.9 °F 93% 30.11 in 1.2 mi SE 6.9 mph - 0.01 in   Overcast
7:57 AM 60.1 °F 57.9 °F 93% 30.11 in 4.0 mi SE 9.2 mph - N/A   Overcast
8:09 AM 60.1 °F 57.9 °F 93% 30.12 in 8.0 mi ESE 4.6 mph - N/A   Overcast
8:53 AM 60.1 °F 57.9 °F 93% 30.11 in 3.0 mi SE 5.8 mph - 0.02 in Rain Rain
9:20 AM 60.1 °F 57.9 °F 93% 30.12 in 0.8 mi SE 8.1 mph - 0.05 in Rain Light Rain
9:53 AM 60.1 °F 57.9 °F 93% 30.11 in 0.2 mi SE 6.9 mph - 0.06 in Fog , Rain Light Rain
10:00 AM 60.1 °F 57.9 °F 93% 30.12 in 1.2 mi SE 9.2 mph - 0.01 in Rain Light Rain
10:02 AM 60.1 °F 57.9 °F 93% 30.12 in 3.0 mi SE 8.1 mph - 0.01 in Rain Light Rain
10:53 AM 61.0 °F 57.9 °F 90% 30.12 in 8.0 mi SE 8.1 mph - 0.03 in Rain Light Rain
11:03 AM 61.0 °F 59.0 °F 93% 30.13 in 8.0 mi SE 6.9 mph - 0.00 in   Overcast
11:29 AM 61.0 °F 57.9 °F 90% 30.13 in 9.0 mi SE 9.2 mph - 0.00 in Rain Light Rain
11:53 AM 61.0 °F 59.0 °F 93% 30.12 in 8.0 mi ESE 8.1 mph - 0.01 in Rain Light Rain
12:13 PM 62.1 °F 59.0 °F 90% 30.13 in 10.0 mi ESE 9.2 mph - 0.00 in Rain Light Rain
12:50 PM 60.8 °F 57.2 °F 88% 30.13 in 10.0 mi ESE 6.9 mph - 0.00 in   Overcast
12:53 PM 61.0 °F 57.9 °F 90% 30.12 in 10.0 mi ESE 6.9 mph - 0.00 in   Overcast
1:02 PM 61.0 °F 59.0 °F 93% 30.13 in 10.0 mi SE 8.1 mph - 0.00 in Rain Light Rain
1:09 PM 62.1 °F 59.0 °F 90% 30.13 in 7.0 mi SE 6.9 mph - 0.01 in Rain Light Rain
1:18 PM 62.1 °F 59.0 °F 90% 30.13 in 3.0 mi SSE 8.1 mph - 0.03 in Rain Light Rain
1:53 PM 62.1 °F 59.0 °F 90% 30.13 in 9.0 mi ESE 6.9 mph - 0.03 in   Overcast
2:36 PM 61.0 °F 59.0 °F 93% 30.14 in 10.0 mi East 6.9 mph - N/A   Overcast
2:47 PM 62.6 °F 60.8 °F 94% 30.14 in 1.2 mi East 8.1 mph - 0.00 in Rain Light Rain
2:49 PM 62.6 °F 59.0 °F 88% 30.14 in 1.0 mi ESE 9.2 mph - 0.00 in Rain Light Rain
2:53 PM 63.0 °F 59.0 °F 87% 30.13 in 1.0 mi East 9.2 mph - 0.00 in Rain Light Rain
2:57 PM 63.0 °F 59.0 °F 87% 30.14 in 2.0 mi East 8.1 mph - 0.00 in   Overcast
3:04 PM 63.0 °F 59.0 °F 87% 30.14 in 10.0 mi ESE 10.4 mph - 0.00 in   Overcast
3:20 PM 66.0 °F 59.0 °F 78% 30.14 in 10.0 mi ESE 8.1 mph - 0.00 in   Overcast
3:27 PM 64.9 °F 59.0 °F 81% 30.14 in 10.0 mi Variable 5.8 mph - 0.00 in   Mostly Cloudy
3:38 PM 64.9 °F 59.0 °F 81% 30.14 in 10.0 mi SE 8.1 mph - 0.00 in   Overcast
3:49 PM 64.4 °F 59.0 °F 83% 30.15 in 10.0 mi SE 4.6 mph - 0.00 in   Mostly Cloudy
3:50 PM 64.9 °F 59.0 °F 81% 30.13 in 10.0 mi Variable 4.6 mph - 0.00 in   Mostly Cloudy
4:08 PM 64.0 °F 57.9 °F 80% 30.15 in 10.0 mi SE 5.8 mph - N/A   Overcast
4:24 PM 64.0 °F 59.0 °F 84% 30.15 in 10.0 mi SE 3.5 mph - N/A   Overcast
4:55 PM 64.9 °F 59.0 °F 81% 30.15 in 1.0 mi East 5.8 mph - N/A   Haze
5:08 PM 64.9 °F 59.0 °F 81% 30.15 in 0.5 mi East 6.9 mph - N/A   Haze
5:22 PM 64.9 °F 59.0 °F 81% 30.14 in 0.2 mi ESE 6.9 mph - N/A   Haze
5:35 PM 64.0 °F 59.0 °F 84% 30.14 in 1.0 mi ESE 5.8 mph - N/A   Haze
5:53 PM 64.0 °F 59.0 °F 84% 30.14 in 0.8 mi ESE 5.8 mph - N/A   Haze
6:01 PM 64.0 °F 59.0 °F 84% 30.15 in 1.2 mi NE 8.1 mph - N/A   Haze
6:08 PM 63.0 °F 59.0 °F 87% 30.15 in 10.0 mi NE 6.9 mph - N/A   Overcast
6:12 PM 63.0 °F 59.0 °F 87% 30.14 in 0.8 mi NE 10.4 mph - N/A   Overcast
6:14 PM 63.0 °F 59.0 °F 87% 30.14 in 0.2 mi NE 6.9 mph - N/A Fog Fog
6:21 PM 62.1 °F 59.0 °F 90% 30.14 in 0.2 mi ENE 8.1 mph - N/A Fog Fog
6:29 PM 62.1 °F 59.0 °F 90% 30.14 in 0.5 mi NE 6.9 mph - N/A Fog Fog
6:36 PM 62.1 °F 59.0 °F 90% 30.14 in 3.0 mi ENE 6.9 mph - 0.00 in Rain Light Rain
6:40 PM 62.1 °F 59.0 °F 90% 30.15 in 2.5 mi ENE 6.9 mph - 0.01 in Rain Light Rain
6:48 PM 60.8 °F 57.2 °F 88% 30.15 in 1.5 mi ENE 6.9 mph - 0.02 in Rain Rain
6:53 PM 61.0 °F 57.9 °F 90% 30.14 in 3.0 mi ENE 5.8 mph - 0.04 in Rain Rain
6:56 PM 61.0 °F 57.9 °F 90% 30.14 in 3.0 mi ENE 4.6 mph - 0.00 in Rain Rain
7:05 PM 61.0 °F 57.9 °F 90% 30.14 in 1.2 mi ENE 4.6 mph - 0.00 in Rain Light Rain
7:28 PM 61.0 °F 57.9 °F 90% 30.15 in 0.5 mi ENE 4.6 mph - 0.00 in Fog Fog
7:40 PM 61.0 °F 57.9 °F 90% 30.15 in 1.8 mi ENE 3.5 mph - 0.00 in   Overcast
7:53 PM 61.0 °F 57.9 °F 90% 30.14 in 5.0 mi ENE 4.6 mph - 0.00 in   Overcast
8:04 PM 61.0 °F 57.9 °F 90% 30.15 in 1.0 mi NE 3.5 mph - N/A   Overcast
8:45 PM 61.0 °F 57.0 °F 87% 30.15 in 0.8 mi ENE 5.8 mph - N/A   Overcast
8:49 PM 60.8 °F 57.2 °F 88% 30.16 in 2.5 mi ENE 4.6 mph - N/A   Overcast
8:53 PM 61.0 °F 57.0 °F 87% 30.15 in 2.0 mi ENE 5.8 mph - N/A   Overcast
9:02 PM 61.0 °F 57.0 °F 87% 30.16 in 4.0 mi NE 4.6 mph - N/A   Overcast
9:13 PM 61.0 °F 57.9 °F 90% 30.16 in 1.8 mi ENE 5.8 mph - N/A   Overcast
9:23 PM 61.0 °F 57.0 °F 87% 30.16 in 3.0 mi ENE 4.6 mph - N/A   Overcast
9:39 PM 61.0 °F 57.0 °F 87% 30.16 in 1.5 mi ENE 4.6 mph - N/A   Overcast
9:53 PM 61.0 °F 57.0 °F 87% 30.15 in 1.2 mi ENE 4.6 mph - N/A   Overcast
10:17 PM 61.0 °F 57.0 °F 87% 30.16 in 3.0 mi NE 5.8 mph - N/A   Overcast
10:24 PM 61.0 °F 57.0 °F 87% 30.17 in 2.5 mi NE 4.6 mph - N/A   Overcast
10:33 PM 61.0 °F 57.0 °F 87% 30.17 in 4.0 mi NE 5.8 mph - N/A   Overcast
10:53 PM 60.1 °F 57.0 °F 90% 30.16 in 1.8 mi ENE 4.6 mph - N/A   Overcast
11:05 PM 61.0 °F 57.0 °F 87% 30.16 in 10.0 mi Calm Calm - N/A   Overcast
11:18 PM 61.0 °F 57.0 °F 87% 30.17 in 1.8 mi ENE 3.5 mph - N/A   Overcast
11:32 PM 61.0 °F 57.0 °F 87% 30.16 in 10.0 mi ENE 4.6 mph - N/A   Overcast
11:53 PM 61.0 °F 57.0 °F 87% 30.17 in 4.0 mi ENE 3.5 mph - N/A   Overcast